Powrót do katalogu

NOAA 17 DEB

AktywnyPO
NORAD 48165·DEBRIS·🇺🇸 United States

Wystrzelony Jun 24, 2002 z Vandenberg Space Force Base

Loading…

Następne Przeloty (najbliższe 24 godziny)

TLE

ŚwieżeSource: Space-Track

Epoka: Sep 14, 2026, 04:18 UTC

1 48165U 02032F   26257.17918085  .00004006  00000-0  53426-3 0  9995
2 48165  98.6744 331.2879 0053426 293.9512  65.6107 14.79275903293532

Śledź NOAA 17 DEB w czasie rzeczywistym z AllMySat

Download on the App Store